Weather Roundup
Issued by NWS Springfield, MO

Home | Current Version | Previous Version | Text Only | Print | Product List | Glossary Off
Versions: 1 2 3 4 5 6 7 8 9 10 11 12 13 14 15 16 17 18 19 20 21 22 23 24 25 26 27 28 29 30 31 32 33 34 35 36 37 38 39 40 41 42 43 44 45 46 47 48 49 50

000
NZUS99 KSGF 080607
HRRSGF

HOURLY WEATHER
NATIONAL WEATHER SERVICE SPRINGFIELD MO
100 AM CDT WED JUL 08 2015

......SGF CWA......

CITY           SKY/WX    TMP DP  RH WIND       PRES   REMARKS
SPRINGFIELD    CLOUDY    68  67  96 E5        30.01F
6HR MIN TEMP:  67; 6HR MAX TEMP:  68; 6HR PCP:  0.03;

JOPLIN         CLOUDY    66  65  96 NE5       30.01F FOG
6HR MIN TEMP:  65; 6HR MAX TEMP:  66; 6HR PCP:  0.03;

WEST PLAINS    FOG       71  70  96 S3        30.06S VSB 1/4
6HR MIN TEMP:  71; 6HR MAX TEMP:  73; 6HR PCP: TRACE;

ROLLA          CLOUDY    63  63 100 E8        30.04F FOG
6HR MIN TEMP:  63; 6HR MAX TEMP:  65; 6HR PCP:  0.03;

OSAGE BEACH    CLOUDY    64  63  94 E5        30.04F
BRANSON          N/A     72  72 100 CALM      30.04F

......SURROUNDING SGF CWA......

CITY           SKY/WX    TMP DP  RH WIND       PRES   REMARKS
CHANUTE        LGT RAIN  64  63  96 NE6       30.03S FOG
PARSONS        LGT RAIN  65  64  97 VRB3      30.03F FOG
COFFEYVILLE    LGT RAIN  65  64  97 NE6       30.00F FOG
EMPORIA        CLOUDY    63  61  93 NE6       30.05F
GROVE OK       CLOUDY    68  68 100 CALM      30.00F FOG
ROGERS AR      LGT RAIN  71  70  96 E5        30.01F
SILOAM SPRINGS CLOUDY    70  66  88 E3        30.00F
HARRISON AR    LGT RAIN  71  70  96 SE7       30.03F
NEAR YELLVILLE CLOUDY    72  68  88 CALM      30.01F

......KANSAS AND MISSOURI......

CITY           SKY/WX    TMP DP  RH WIND       PRES   REMARKS
KANSAS CTY INT DRIZZLE   66  59  78 E8        30.06F
DOWNTOWN KC    LGT RAIN  66  63  90 SE3       30.05F FOG
COLUMBIA       LGT RAIN  65  63  93 E7        30.06F FOG
SEDALIA        LGT RAIN  65  62  90 E7        30.06F FOG
ST JOSEPH      CLOUDY    66  57  72 NE5       30.07F
ST LOUIS       LGT RAIN  66  62  87 E7        30.06F
SPIRIT OF STL  CLOUDY    66  64  93 E3        30.05F
KIRKSVILLE     CLOUDY    64  58  80 NE5       30.09S
WICHITA        LGT RAIN  63  60  90 NE10      30.04F FOG
TOPEKA         CLOUDY    66  62  87 CALM      30.06F
OLATHE         LGT RAIN  63  62  97 NE6       30.06S FOG

......TENNESSEE......

CITY           SKY/WX    TMP DP  RH WIND       PRES   REMARKS
MEMPHIS        CLOUDY    81  74  79 S9G20     30.05S
NASHVILLE      CLOUDY    72  71  97 CALM      30.10F FOG

......ARKANSAS.......

CITY           SKY/WX    TMP DP  RH WIND       PRES   REMARKS
FAYETTEVILLE   CLOUDY    70  69  97 CALM      30.00F
FT SMITH       CLOUDY    73  70  90 E7        29.97F
LITTLE ROCK    MOCLDY    75  70  84 NE5       30.03F

......OKLAHOMA.......

CITY           SKY/WX    TMP DP  RH WIND       PRES   REMARKS
TULSA          RAIN      67  66  97 NE6       29.95F FOG
PONCA CITY     CLOUDY    64  62  93 NE12      29.98F FOG
MCALESTER      CLOUDY    74  72  93 E6        29.94F
OKLAHOMA CITY  LGT RAIN  67  67 100 N8        29.95F FOG

......IOWA............

CITY           SKY/WX    TMP DP  RH WIND       PRES   REMARKS
DES MOINES     PTCLDY    61  51  70 E5        30.10F
QUAD CITIES    CLOUDY    62  56  80 E5        30.10R

......ILLINOIS........

CITY           SKY/WX    TMP DP  RH WIND       PRES   REMARKS
QUINCY         CLOUDY    67  62  84 CALM      30.07F
CHICAGO        MOCLDY    55  48  77 N7        30.10F



USA.gov is the U.S. government's official web portal to all federal, state and local government web resources and services.